Temperature
23 22 21 21 24 25 27 28 29 30 29 29 29 28 27 26 25 23 22 22 21 21 20 20 20 20 19 19 19 19 19 19 19 19 19 19 19 19 19 19 19 19 18 18 18 18 18 19 19
22 22 22 24 25 27 28 29 30 30 29 29 28 28 27 26 24 23 22 22 21 21 20 20 20 20 20 19 19 19 19 19 19 19 19 19 19 19 19 19 19 18 18 18 18 18 18 18 19
22 23 24 26 27 28 29 29 30 30 29 29 28 27 26 25 24 23 22 22 21 20 20 20 20 20 20 19 19 19 19 19 19 19 19 19 19 19 19 19 19 18 18 18 18 18 18 18 18
23 25 26 28 29 30 30 30 30 30 29 29 28 27 25 24 24 23 22 22 21 21 20 21 20 20 20 19 19 19 19 19 19 19 19 19 19 19 18 19 18 18 18 18 18 18 18 18 18
24 26 27 28 29 30 31 31 31 30 30 29 27 26 24 24 23 23 23 22 21 21 20 20 20 20 20 20 19 19 19 19 19 19 19 19 19 19 18 18 18 18 18 18 18 18 18 18 18
26 28 28 28 30 31 31 31 31 30 30 28 27 25 24 23 23 23 23 22 22 21 21 20 20 20 20 20 19 19 19 19 19 19 19 19 18 18 18 18 18 18 18 18 18 18 18 18 18
27 28 29 30 30 31 31 31 30 30 30 29 28 26 24 24 23 23 23 22 22 21 20 20 20 20 20 19 19 19 19 19 19 19 19 19 18 18 18 18 18 18 18 18 18 18 18 18 18
29 29 30 30 30 30 31 31 30 30 29 28 28 26 24 24 24 23 23 22 22 21 21 20 20 20 19 19 19 19 19 19 19 19 19 19 18 18 18 18 18 18 18 18 18 18 18 18 18
29 29 29 31 30 30 31 31 30 29 29 28 27 26 24 24 23 23 23 22 22 21 21 20 20 20 19 19 19 19 19 19 19 19 19 18 18 18 18 18 18 18 18 18 18 18 18 18 18
30 29 31 32 32 32 31 31 30 30 29 28 26 25 24 24 23 23 23 22 21 21 21 20 20 20 20 19 19 19 19 18 18 18 18 18 18 18 18 18 18 18 18 18 18 18 18 18 18
32 31 32 32 32 32 32 31 30 30 28 27 26 25 24 24 24 23 23 22 21 21 21 20 20 20 20 19 19 19 18 18 18 18 18 18 18 18 18 18 18 18 18 18 18 18 18 18 18
33 33 33 33 32 32 31 31 30 30 28 27 26 25 25 24 24 23 23 22 21 21 21 21 20 20 20 19 19 19 18 18 18 18 18 18 18 18 18 18 18 18 18 18 18 18 18 18 18
33 33 33 33 32 32 31 31 30 29 28 27 26 25 25 24 24 23 22 22 21 21 21 20 20 20 19 19 19 19 18 18 18 18 18 18 18 18 18 18 18 18 18 18 18 18 18 18 18
34 33 33 33 32 31 31 31 30 29 28 27 26 26 25 25 24 23 22 22 21 21 20 20 20 20 19 19 19 19 18 18 18 18 18 18 18 18 18 18 18 18 18 18 18 18 18 18 18
33 31 31 32 32 31 30 29 30 29 28 27 26 26 25 24 24 23 22 22 21 21 20 20 20 19 19 19 19 18 18 18 18 18 18 18 17 18 18 17 17 18 17 17 17 17 18 18 18
31 30 29 30 32 32 30 28 29 29 28 27 27 26 25 24 24 23 22 21 21 21 20 20 20 19 19 19 19 18 18 18 18 18 18 18 17 17 17 17 17 18 17 17 17 17 17 17 18
30 29 30 30 32 32 31 29 30 29 29 28 27 26 25 25 24 23 22 21 21 20 20 20 20 19 19 19 18 18 18 18 18 18 17 17 17 17 17 17 17 17 17 17 17 17 17 17 18
31 31 31 32 33 33 32 30 31 30 29 28 27 27 26 25 24 23 22 22 21 20 20 20 20 19 19 18 18 18 18 18 18 17 17 17 17 17 17 17 17 17 17 17 17 17 17 17 17
33 32 32 33 34 33 32 31 31 31 30 29 28 27 26 25 24 23 23 22 21 20 20 20 19 19 19 18 18 18 18 18 18 17 17 17 17 17 17 17 17 17 17 17 17 17 17 17 17
33 33 33 33 34 33 31 30 31 31 30 29 28 27 26 25 24 23 23 22 21 20 20 19 19 19 19 18 18 18 18 18 18 17 17 17 17 17 17 17 17 17 17 17 17 17 17 17 17
33 33 33 33 33 33 31 29 29 30 30 29 29 28 27 26 24 24 23 22 21 21 20 20 19 19 19 19 18 18 18 18 18 17 17 17 17 17 17 17 17 17 17 17 17 17 17 17 17
33 34 34 33 32 31 30 28 29 29 30 30 29 28 27 26 25 24 23 22 22 21 20 20 19 19 19 19 18 18 18 18 18 17 17 17 17 17 17 17 17 17 17 17 17 17 16 17 17
34 35 34 33 32 31 30 28 28 29 29 29 30 29 28 27 26 25 24 23 22 21 20 20 19 19 19 18 18 18 18 17 17 17 17 17 17 17 17 17 17 17 17 17 16 17 16 17 17
35 34 33 32 31 29 29 29 28 29 29 29 30 29 28 27 26 25 24 23 22 21 21 20 19 19 19 18 18 18 18 17 17 17 17 17 17 17 17 17 17 17 17 17 17 17 17 17 17
34 33 31 29 29 29 30 29 28 30 31 30 30 29 28 27 26 25 24 23 22 21 21 20 19 19 18 18 18 18 18 17 17 17 17 17 17 17 17 17 17 17 16 16 16 16 16 16 17
34 33 31 29 30 30 30 29 29 30 31 31 30 29 28 27 26 25 24 23 22 22 21 20 19 19 18 18 18 18 18 17 17 17 17 17 17 17 17 17 17 16 16 16 16 16 16 16 16
33 33 34 32 32 30 29 29 29 31 30 30 30 29 28 27 26 25 24 23 22 22 21 20 19 19 18 18 18 18 18 18 17 17 17 17 17 17 17 16 16 16 16 16 16 16 16 16 16
34 34 33 31 29 28 28 28 28 29 29 30 30 29 28 27 26 25 24 23 23 22 21 20 19 19 18 18 18 18 18 18 17 17 17 17 16 16 16 16 16 16 16 16 16 16 16 16 16
33 33 32 31 31 29 28 28 30 30 30 29 30 29 28 27 26 25 24 23 22 22 21 20 19 19 18 18 18 18 17 17 17 17 17 17 16 16 16 16 16 16 16 16 16 15 15 15 15
33 33 33 31 30 31 30 29 31 31 31 30 30 29 28 27 26 25 24 23 23 22 20 19 19 19 18 18 18 17 17 17 17 17 17 16 16 16 16 16 16 16 16 16 15 15 15 15 15
Wind_Speed
11 11 9 5 4 1 9 9 11 12 13 13 13 12 15 15 10 9 8 11 15 14 13 13 13 12 11 11 10 10 9 9 9 9 8 8 7 7 7 7 6 6 6 6 6 6 6 6 5
10 10 7 4 2 5 11 11 13 13 11 11 13 14 15 15 13 11 9 11 14 13 13 13 13 12 11 10 10 9 9 9 8 8 7 6 6 6 6 6 5 5 6 6 6 6 5 5 4
11 11 5 3 4 9 11 11 11 11 10 11 12 14 11 10 11 9 10 12 13 14 14 15 14 12 11 10 9 8 8 8 8 7 6 5 5 4 5 5 5 5 5 5 5 6 6 5 4
7 6 4 0 9 12 11 10 10 10 10 11 11 11 11 10 10 11 12 13 14 14 15 15 14 12 11 10 9 8 8 7 7 6 6 5 4 4 4 4 4 4 5 5 5 5 6 5 5
8 4 2 5 10 12 11 10 10 10 11 13 14 13 11 11 13 13 11 12 13 14 15 15 14 13 11 9 8 8 7 6 6 5 5 5 4 4 4 4 4 4 4 5 5 5 6 6 6
5 3 1 6 9 11 11 9 10 11 11 12 14 13 10 10 12 11 11 11 13 14 14 14 14 13 11 10 9 7 6 6 5 5 5 4 5 5 5 5 4 4 4 5 5 5 6 6 6
6 3 2 7 9 10 10 9 11 9 10 10 11 12 10 10 10 11 11 11 12 14 12 11 11 11 11 10 9 7 6 5 4 4 4 5 5 5 6 6 5 5 5 5 5 6 7 8 7
4 3 3 7 9 9 9 10 10 9 10 9 9 9 9 10 10 11 11 11 10 11 10 10 10 9 9 9 9 8 7 6 5 5 5 6 6 7 7 7 7 7 6 6 7 6 6 8 9
3 1 3 7 9 9 8 10 10 10 11 11 12 13 13 12 11 11 10 9 8 8 7 7 7 7 8 8 9 9 8 6 5 6 6 6 5 6 7 7 8 8 8 8 8 8 8 9 10
2 2 6 6 8 9 9 8 8 9 10 11 13 13 13 12 11 11 9 8 7 6 6 5 5 5 4 5 7 6 5 5 4 3 4 4 3 3 3 6 8 9 9 9 9 10 10 10 8
3 4 5 7 7 8 9 8 8 9 9 10 12 13 12 11 10 9 9 8 8 5 4 5 6 4 4 4 4 2 2 4 4 3 2 2 3 3 3 3 5 6 7 7 6 7 6 6 5
2 3 4 7 7 8 8 8 9 10 10 11 12 13 12 11 10 9 9 8 7 6 5 6 6 5 5 4 2 2 2 2 2 3 1 1 0 0 1 1 2 3 3 4 3 3 4 4 4
1 3 4 6 6 7 8 8 9 10 12 12 12 12 11 10 10 9 8 8 7 6 5 6 6 5 4 3 2 2 2 1 3 3 2 1 1 1 0 0 1 2 2 2 2 2 2 3 3
1 3 3 4 6 7 7 6 7 10 11 11 11 11 9 9 9 9 8 8 8 6 5 5 6 6 4 3 2 1 2 2 3 3 3 2 1 1 1 0 0 1 1 1 1 2 2 2 3
5 5 5 1 5 6 7 4 5 9 11 11 10 9 9 8 8 7 8 7 7 6 5 4 6 6 4 3 2 2 2 3 2 3 3 2 2 2 1 1 0 1 2 1 1 1 1 2 3
1 2 2 3 3 6 6 4 6 9 11 11 10 8 8 8 8 8 8 7 7 6 5 3 4 6 4 3 1 2 2 2 2 3 3 3 2 2 1 1 1 1 2 1 0 1 1 2 2
5 5 5 5 4 5 6 6 8 9 11 10 9 9 9 8 8 8 8 8 7 6 5 4 3 5 4 3 2 2 2 3 2 3 3 2 2 2 1 1 1 1 1 1 1 0 1 2 2
5 5 4 3 4 4 5 7 9 10 10 10 9 9 9 8 8 9 9 9 8 7 6 5 4 3 3 2 2 1 2 2 2 2 2 2 1 2 2 1 1 1 1 1 1 1 1 2 2
7 4 2 1 3 4 4 7 8 9 9 10 10 9 9 9 10 10 9 9 9 8 6 5 4 3 2 1 1 1 1 1 1 2 2 2 2 2 1 2 1 1 1 1 2 1 2 2 1
7 6 4 1 1 2 3 2 5 8 8 9 9 9 9 9 9 9 9 9 9 8 7 6 4 3 2 1 1 1 1 1 2 2 2 2 2 1 1 1 2 1 1 1 1 1 2 2 1
6 6 6 4 3 3 1 3 4 6 8 9 9 11 11 10 10 10 9 8 9 9 7 6 4 3 2 2 1 1 2 1 2 2 2 2 1 1 1 1 1 1 1 1 1 1 2 2 2
5 5 7 8 5 3 2 2 5 7 8 9 9 9 11 11 11 11 10 9 9 9 8 7 6 4 3 2 1 1 2 1 1 1 2 2 1 1 1 2 2 2 1 1 2 0 2 2 2
7 7 8 9 6 6 2 1 3 7 7 7 8 8 9 10 11 10 9 9 8 8 8 8 6 5 4 3 2 0 1 1 1 1 2 1 1 1 2 2 2 2 1 2 2 1 1 1 2
8 9 8 7 6 6 4 3 2 5 7 7 7 8 8 9 10 10 10 9 7 7 7 8 6 5 4 3 3 2 0 1 2 1 1 0 1 1 1 1 1 2 1 2 2 2 1 1 2
9 7 5 6 5 5 4 1 3 2 6 8 8 9 9 8 9 10 10 9 8 8 7 7 6 5 5 4 3 3 2 1 1 1 1 1 1 1 1 1 1 1 1 1 2 2 2 2 2
9 8 6 7 7 3 1 1 4 5 5 7 9 9 9 9 9 10 10 9 8 8 8 8 6 5 4 4 3 2 1 1 1 1 1 1 1 2 2 1 1 1 2 2 1 2 1 1 2
9 8 10 10 9 6 1 3 5 5 5 8 9 9 9 8 8 9 10 9 8 8 8 8 7 5 4 4 4 3 2 1 1 1 1 1 1 1 2 1 1 1 1 2 1 2 2 1 1
9 9 7 6 5 7 2 1 3 5 6 6 7 8 9 9 9 9 9 8 8 8 7 7 6 5 5 4 4 3 3 2 1 0 1 1 2 2 2 2 1 1 1 2 2 2 2 1 2
9 9 6 5 6 6 4 1 3 5 6 6 7 8 9 8 8 8 9 8 8 7 7 6 6 4 4 4 3 3 3 2 1 1 1 0 1 1 1 1 1 1 2 2 1 2 2 2 2
10 9 8 7 6 7 6 0 3 3 6 5 6 8 8 8 8 8 8 8 8 8 7 5 6 6 4 4 4 3 2 2 1 1 1 1 1 1 1 1 2 2 2 2 2 2 3 2 3
Wind_Direction
193 207 214 234 244 214 66 66 64 61 64 57 56 63 61 57 64 87 101 106 108 109 114 112 107 105 102 98 98 99 101 114 120 122 122 122 126 129 129 133 134 135 135 135 133 129 130 127 136
211 215 225 245 261 69 68 63 67 67 70 77 69 69 67 68 78 98 104 107 111 114 118 114 113 109 106 101 99 99 102 109 115 121 124 128 130 131 133 137 142 146 146 146 143 140 141 141 145
237 238 249 240 51 63 67 68 75 80 76 76 76 68 62 76 85 100 115 117 112 112 114 117 119 113 109 105 102 101 104 108 114 116 118 122 126 133 138 143 145 148 154 161 161 158 158 158 161
239 234 248 82 64 67 71 76 82 83 77 74 76 74 70 73 96 110 119 115 112 115 114 119 122 120 115 108 104 104 106 110 114 114 112 116 132 146 151 155 158 159 168 172 174 176 175 180 185
240 259 248 75 77 79 76 79 81 79 77 79 81 84 81 83 103 113 114 110 111 111 113 119 124 124 120 114 111 110 109 113 117 119 127 131 138 150 163 173 173 174 181 187 186 188 195 197 200
264 261 100 85 87 85 81 77 79 81 87 93 96 96 95 103 106 112 112 109 110 111 116 123 128 127 126 123 119 118 120 124 130 132 138 149 158 161 171 184 184 187 193 198 199 200 208 214 212
260 293 70 89 89 87 86 82 76 74 76 86 100 103 110 114 113 117 112 105 108 114 120 129 133 136 139 137 135 132 132 136 145 152 161 175 180 183 188 194 198 204 212 210 214 214 217 220 219
264 316 33 83 86 83 88 84 82 81 78 86 98 103 119 125 126 118 111 104 102 110 120 131 139 140 147 150 151 149 150 159 175 182 185 191 196 198 202 202 201 205 211 215 221 221 219 220 225
287 311 52 78 93 95 91 94 93 86 83 77 79 97 120 127 125 118 110 103 98 101 111 121 131 139 151 151 151 161 167 176 183 192 200 204 206 199 201 203 195 201 205 214 219 220 223 224 228
175 75 71 75 89 102 100 98 108 102 92 89 92 100 117 124 124 119 117 113 107 106 112 118 116 123 131 128 139 161 166 166 174 168 193 198 215 209 188 180 188 200 206 212 220 224 229 230 227
118 88 90 92 95 101 104 100 90 103 103 112 120 122 126 131 127 122 119 117 116 118 111 108 99 93 94 99 128 128 131 151 158 150 191 194 210 188 170 176 190 208 213 218 217 223 228 228 224
101 107 101 98 98 100 100 98 92 93 106 120 125 131 137 139 130 127 123 120 119 114 100 93 88 75 63 67 92 116 111 123 123 143 197 79 336 81 145 171 192 204 208 205 210 215 226 235 227
217 119 111 105 107 107 106 104 104 103 113 118 123 128 133 132 132 129 126 125 119 110 98 91 93 84 69 57 10 86 99 103 123 127 108 70 20 35 44 225 201 244 217 193 208 226 227 221 221
26 43 81 120 119 106 92 107 115 123 124 125 127 131 133 126 126 125 126 121 115 112 103 100 97 90 81 76 29 33 59 74 75 89 85 62 39 43 6 301 3 296 280 193 229 242 238 229 226
38 31 353 259 143 123 102 90 111 135 133 131 130 134 135 136 133 130 125 120 119 112 103 109 110 102 92 86 55 68 59 82 70 86 96 72 54 47 1 317 127 358 318 265 226 250 241 240 227
292 215 183 259 189 143 127 132 146 156 141 136 140 144 143 142 143 137 128 125 121 116 104 87 97 108 102 91 56 49 47 70 69 82 83 71 54 56 2 332 50 355 320 350 243 228 253 253 247
249 228 206 212 197 169 154 141 151 161 147 143 149 151 148 150 148 140 133 131 124 113 109 103 73 93 105 102 84 43 49 44 44 71 69 62 37 46 21 2 45 335 323 357 303 78 265 267 266
262 227 213 172 164 175 138 142 156 158 153 150 154 153 152 154 147 147 147 141 130 118 114 112 103 88 99 108 104 70 58 58 54 78 87 94 48 51 16 330 66 356 340 348 340 323 280 256 256
292 281 293 107 168 182 146 156 159 163 162 159 163 158 154 152 150 148 150 145 134 129 124 118 119 112 105 89 109 117 91 56 58 75 82 92 54 48 37 351 11 344 7 357 319 312 293 270 251
284 299 299 267 113 247 135 132 154 161 167 160 158 153 156 154 150 151 155 152 147 141 140 136 131 128 141 125 125 123 89 107 95 67 81 79 61 13 36 5 333 354 8 332 308 317 293 278 259
280 293 300 287 221 231 173 159 195 172 163 162 167 162 162 162 156 158 161 161 155 150 150 151 150 142 151 147 148 106 93 34 54 78 90 86 69 60 347 14 350 330 309 261 275 276 287 282 292
288 297 289 288 284 268 218 228 210 182 171 170 169 167 164 164 160 162 163 165 162 159 155 149 151 151 148 150 128 137 119 93 78 74 89 102 85 32 14 26 1 333 338 339 278 282 285 276 278
292 290 289 294 300 294 231 234 216 176 172 171 163 164 160 160 158 156 158 159 159 158 157 152 150 153 154 159 151 154 97 117 93 91 91 99 111 62 33 31 358 334 344 336 336 341 308 296 296
278 276 284 290 282 276 256 232 201 177 165 160 159 153 153 150 145 146 146 148 150 149 150 147 145 154 156 159 157 144 78 47 49 47 59 243 134 95 43 32 14 345 334 341 341 327 316 327 327
270 282 286 294 270 260 229 189 115 139 143 148 152 145 146 146 146 148 147 152 152 148 144 137 144 152 159 164 170 163 188 194 198 273 240 257 21 76 62 24 27 346 346 359 343 314 319 340 320
262 276 280 285 290 287 338 101 125 135 135 137 136 140 142 144 149 151 150 152 154 149 142 139 142 146 156 158 165 156 184 229 229 257 301 359 11 34 62 42 25 10 1 342 346 314 307 314 311
273 278 288 292 305 314 306 133 124 123 133 127 126 137 138 144 151 152 151 153 152 146 143 144 143 146 149 155 156 156 170 207 286 283 276 7 7 25 38 34 44 18 354 330 339 324 312 323 302
257 278 295 306 312 297 307 218 165 151 145 132 145 147 142 153 154 147 148 151 150 148 142 140 143 147 148 153 168 156 167 183 201 343 23 8 25 26 13 7 19 8 358 352 350 323 312 313 297
251 255 267 285 291 292 289 238 137 149 150 158 167 153 147 151 148 146 147 145 140 140 144 148 144 147 154 151 144 128 147 164 180 140 113 54 22 17 343 347 355 359 357 359 353 327 349 0 334
274 267 263 267 271 281 288 163 108 152 158 169 164 141 138 140 142 143 145 139 141 145 146 154 156 160 159 148 148 151 157 160 157 132 131 121 63 27 359 359 352 356 10 7 359 343 356 354 343
Height
1487 1488 1488 1491 1490 1487 1484 1478 1472 1472 1474 1476 1477 1479 1483 1486 1491 1503 1504 1503 1504 1504 1504 1505 1506 1507 1508 1509 1509 1511 1512 1513 1514 1516 1517 1519 1520 1522 1523 1524 1526 1527 1528 1529 1531 1532 1533 1534 1535
1487 1489 1491 1490 1488 1490 1485 1475 1474 1475 1477 1479 1480 1483 1486 1491 1496 1501 1503 1505 1505 1505 1506 1506 1507 1508 1509 1510 1511 1512 1513 1514 1515 1517 1518 1520 1521 1522 1524 1525 1526 1527 1529 1530 1531 1532 1533 1534 1535
1488 1490 1491 1485 1482 1485 1484 1476 1475 1476 1479 1480 1483 1487 1492 1496 1499 1502 1505 1506 1506 1506 1507 1507 1508 1509 1510 1511 1512 1513 1514 1515 1516 1517 1519 1520 1521 1523 1524 1525 1526 1527 1529 1530 1531 1532 1533 1534 1535
1489 1490 1488 1482 1482 1477 1475 1475 1476 1478 1480 1482 1485 1491 1497 1500 1502 1504 1506 1507 1507 1508 1508 1508 1509 1510 1511 1512 1513 1514 1515 1516 1517 1518 1519 1520 1521 1523 1524 1525 1526 1527 1528 1529 1530 1531 1532 1534 1535
1490 1488 1485 1483 1480 1475 1474 1476 1477 1479 1481 1485 1489 1495 1501 1503 1504 1505 1507 1508 1508 1509 1509 1509 1510 1511 1512 1513 1514 1515 1516 1516 1517 1518 1519 1520 1522 1523 1523 1524 1525 1527 1528 1529 1530 1530 1532 1532 1534
1488 1484 1487 1488 1481 1475 1475 1477 1479 1480 1483 1486 1491 1497 1503 1505 1506 1507 1508 1509 1509 1509 1510 1511 1512 1512 1513 1514 1515 1515 1516 1517 1518 1519 1520 1520 1521 1522 1523 1524 1525 1526 1527 1528 1529 1530 1531 1532 1533
1487 1482 1482 1480 1480 1478 1477 1479 1481 1483 1485 1488 1491 1497 1502 1506 1507 1508 1509 1510 1511 1511 1511 1512 1513 1514 1514 1515 1516 1516 1517 1517 1518 1519 1519 1520 1521 1522 1523 1523 1524 1525 1526 1526 1527 1528 1529 1530 1531
1483 1482 1480 1478 1482 1482 1478 1480 1483 1485 1488 1490 1492 1496 1503 1506 1507 1509 1510 1511 1512 1513 1513 1513 1514 1514 1515 1516 1516 1517 1517 1518 1518 1518 1519 1520 1521 1522 1522 1523 1523 1524 1525 1526 1526 1527 1528 1529 1530
1479 1483 1485 1479 1480 1481 1479 1481 1484 1487 1489 1492 1494 1498 1503 1506 1507 1509 1511 1512 1514 1514 1515 1515 1515 1516 1516 1517 1517 1517 1518 1518 1518 1518 1519 1520 1521 1521 1522 1522 1522 1523 1524 1525 1526 1527 1528 1529 1529
1478 1484 1480 1474 1474 1476 1479 1481 1484 1487 1491 1495 1498 1501 1504 1506 1508 1509 1511 1513 1514 1515 1516 1516 1517 1517 1518 1518 1518 1518 1519 1518 1518 1518 1519 1520 1521 1521 1522 1522 1522 1522 1523 1524 1525 1526 1527 1528 1528
1474 1477 1473 1473 1474 1476 1479 1481 1484 1486 1492 1496 1499 1503 1505 1507 1508 1511 1512 1514 1515 1516 1517 1517 1517 1518 1518 1519 1519 1519 1519 1519 1519 1519 1520 1520 1521 1521 1521 1522 1522 1522 1523 1523 1524 1525 1526 1527 1528
1473 1472 1472 1473 1475 1477 1479 1482 1485 1488 1493 1497 1500 1502 1505 1507 1509 1511 1513 1515 1516 1517 1518 1518 1518 1518 1519 1519 1519 1519 1519 1520 1520 1520 1520 1520 1520 1521 1521 1522 1522 1523 1523 1523 1524 1525 1525 1526 1527
1471 1471 1472 1474 1476 1478 1480 1483 1487 1491 1495 1498 1500 1503 1505 1507 1510 1512 1514 1516 1517 1518 1518 1519 1519 1519 1519 1519 1519 1520 1520 1520 1520 1520 1520 1520 1520 1520 1520 1521 1522 1522 1523 1523 1523 1524 1525 1525 1526
1471 1472 1473 1475 1476 1478 1481 1484 1487 1492 1495 1498 1501 1504 1506 1508 1511 1513 1515 1516 1517 1518 1518 1519 1519 1519 1519 1519 1519 1519 1520 1520 1520 1520 1519 1519 1519 1519 1519 1520 1520 1521 1522 1522 1522 1523 1523 1524 1525
1474 1477 1478 1475 1475 1478 1482 1488 1488 1491 1494 1497 1501 1504 1506 1509 1511 1513 1514 1516 1517 1518 1518 1519 1519 1519 1519 1519 1519 1520 1520 1520 1520 1520 1519 1518 1518 1518 1519 1519 1519 1520 1520 1521 1521 1522 1522 1523 1523
1476 1483 1490 1480 1476 1476 1484 1495 1489 1490 1493 1496 1500 1503 1506 1508 1510 1512 1514 1515 1517 1517 1518 1519 1520 1519 1519 1519 1520 1520 1520 1520 1520 1519 1519 1518 1518 1518 1518 1519 1519 1519 1519 1519 1520 1520 1521 1522 1522
1482 1491 1490 1482 1474 1473 1480 1489 1487 1489 1491 1495 1499 1502 1505 1508 1510 1512 1514 1515 1516 1517 1518 1519 1519 1519 1519 1520 1520 1520 1520 1520 1520 1519 1518 1518 1518 1518 1518 1518 1518 1518 1518 1518 1519 1519 1520 1520 1521
1485 1482 1479 1476 1470 1470 1476 1483 1482 1486 1489 1493 1497 1500 1503 1506 1509 1511 1513 1514 1516 1517 1518 1519 1519 1519 1520 1520 1520 1520 1520 1520 1519 1519 1518 1517 1517 1517 1517 1517 1517 1517 1518 1518 1518 1518 1519 1519 1520
1469 1472 1474 1470 1464 1468 1474 1479 1480 1483 1486 1490 1494 1498 1502 1505 1508 1510 1512 1514 1515 1516 1517 1518 1518 1519 1519 1519 1519 1520 1520 1520 1519 1518 1518 1517 1517 1517 1517 1517 1517 1517 1517 1517 1517 1518 1518 1518 1519
1467 1471 1472 1466 1463 1467 1475 1480 1478 1480 1484 1488 1492 1496 1500 1504 1507 1509 1511 1513 1514 1515 1516 1517 1518 1518 1518 1519 1519 1520 1520 1520 1519 1519 1518 1517 1517 1517 1517 1516 1516 1516 1516 1516 1516 1517 1517 1517 1518
1467 1469 1469 1469 1465 1466 1475 1488 1482 1481 1482 1486 1490 1493 1497 1501 1504 1507 1510 1512 1513 1514 1515 1516 1517 1517 1518 1518 1519 1519 1519 1519 1519 1519 1518 1518 1517 1517 1517 1516 1516 1516 1516 1515 1515 1516 1516 1516 1516
1471 1461 1462 1464 1471 1479 1481 1501 1488 1481 1483 1484 1487 1490 1494 1498 1502 1505 1507 1510 1511 1513 1514 1515 1516 1516 1517 1518 1518 1519 1519 1519 1519 1519 1519 1518 1517 1517 1517 1516 1516 1515 1515 1515 1515 1515 1515 1515 1515
1464 1458 1461 1464 1471 1479 1482 1496 1494 1482 1485 1483 1484 1487 1492 1496 1500 1503 1505 1508 1510 1512 1513 1514 1515 1516 1516 1517 1517 1518 1518 1519 1519 1519 1519 1518 1518 1517 1516 1516 1515 1515 1515 1514 1514 1514 1514 1514 1514
1457 1459 1462 1465 1474 1495 1485 1492 1497 1481 1480 1480 1483 1486 1490 1494 1498 1501 1504 1507 1509 1511 1513 1513 1514 1515 1515 1516 1516 1517 1517 1518 1518 1518 1518 1518 1518 1517 1516 1516 1515 1514 1514 1514 1513 1513 1513 1513 1513
1458 1470 1489 1497 1498 1495 1477 1485 1490 1476 1473 1476 1481 1485 1489 1493 1497 1500 1503 1505 1508 1510 1511 1512 1513 1514 1514 1515 1515 1516 1517 1517 1517 1518 1518 1518 1518 1517 1516 1515 1514 1514 1513 1513 1513 1513 1512 1512 1512
1460 1466 1488 1504 1498 1487 1481 1489 1483 1472 1474 1476 1480 1484 1488 1492 1495 1499 1502 1504 1507 1509 1510 1511 1512 1512 1513 1514 1514 1515 1516 1516 1517 1517 1517 1517 1517 1517 1516 1515 1514 1513 1513 1513 1512 1512 1511 1511 1511
1462 1464 1459 1472 1477 1489 1490 1485 1479 1473 1476 1477 1480 1484 1487 1492 1495 1497 1500 1503 1505 1507 1509 1510 1511 1511 1512 1512 1513 1514 1514 1515 1516 1516 1516 1516 1516 1516 1515 1514 1513 1512 1512 1512 1511 1511 1510 1510 1510
1455 1458 1464 1477 1497 1505 1497 1494 1488 1480 1478 1477 1480 1483 1487 1491 1494 1497 1499 1502 1504 1506 1508 1510 1510 1511 1511 1512 1512 1513 1513 1514 1514 1515 1515 1515 1515 1514 1513 1513 1512 1512 1511 1511 1510 1510 1509 1509 1509
1458 1460 1464 1471 1476 1493 1504 1499 1472 1474 1474 1477 1479 1481 1485 1489 1492 1495 1498 1501 1503 1505 1508 1509 1510 1511 1511 1512 1512 1512 1513 1513 1513 1513 1513 1513 1513 1513 1512 1512 1511 1511 1510 1510 1509 1508 1508 1508 1507
1454 1457 1461 1477 1480 1477 1485 1490 1465 1468 1471 1475 1476 1480 1484 1488 1491 1494 1497 1500 1502 1505 1506 1508 1508 1510 1511 1511 1512 1512 1512 1513 1513 1513 1512 1512 1512 1511 1511 1511 1510 1510 1509 1509 1508 1507 1507 1507 1506